Vertical_Velocity
-2 -2 -2 6 11 14 15 19 21 22 22 18 10 4 6 5 2 0 3 10 12 8 1 6 6 5 8 4 1 -1 -1 -0 0 0 -0 0 0 1 1 0 0 0 1 1 1 1 1 -0 -1 -0 0 1 1 1 1 0 0 -0 -0 -1 -1 -0 -0 0 0 0 0 0 1 1 1 0 -0 -1 -1 -1 -1 -0 0 1 0 -0 -0 -0 -0 0 0 0 0 0 -0 -1 -1 -0 -0 -1 -2 -2 -2 -1 -1 -1 -1
1 -0 -2 0 4 8 12 16 18 19 23 20 14 6 -2 8 8 3 1 8 12 12 6 5 4 4 8 5 1 -2 -1 -0 -0 0 -0 0 0 1 1 1 0 1 1 1 1 1 1 -0 -1 -0 0 1 1 1 1 0 0 0 -0 -0 -1 -1 -0 0 0 0 0 0 0 1 1 1 -0 -1 -1 -1 -1 -1 -0 0 1 0 -0 -0 -0 -0 0 0 0 0 0 -1 -1 -0 -0 -1 -1 -2 -2 -2 -1 -1 -1
2 1 -0 -1 1 5 10 14 16 17 20 20 18 13 5 8 6 3 -1 3 10 14 13 3 2 5 9 5 1 -2 -1 -0 -0 0 0 0 0 1 1 1 1 1 1 1 1 2 1 0 -0 -0 0 1 1 1 1 1 0 0 -0 -0 -1 -1 -0 -0 0 0 0 0 0 0 0 1 0 -0 -1 -1 -1 -1 -1 0 0 0 0 -0 -0 0 0 1 0 0 0 -0 -0 -0 0 -1 -1 -2 -2 -2 -2 -1 -1
2 2 1 -0 1 4 9 12 14 16 17 17 17 16 14 7 2 1 3 4 10 15 12 1 1 4 8 7 3 -1 -1 -0 0 0 0 0 1 1 1 1 1 1 1 1 1 2 2 1 0 -0 0 1 1 1 1 1 0 0 -0 -1 -1 -1 -1 -0 -0 0 0 0 0 -0 -0 0 0 0 -0 -0 -1 -1 -1 -0 0 0 0 0 0 0 0 1 1 0 0 -0 0 0 0 -1 -1 -2 -2 -2 -2 -1 -1
1 2 2 1 1 3 7 10 13 15 16 15 16 17 17 8 3 3 12 7 8 11 10 1 -0 3 7 9 7 3 -1 0 0 0 0 1 1 1 1 1 1 1 1 1 1 2 2 1 1 0 0 0 1 1 1 1 0 0 -0 -1 -1 -1 -1 -1 -0 -0 0 1 0 -0 -1 -0 0 0 0 0 -0 -1 -1 -1 -0 0 0 -0 0 0 1 1 1 0 -0 -0 0 0 0 -0 -1 -2 -2 -2 -2 -1 -1
-1 0 1 1 1 2 5 9 11 14 15 15 15 15 15 11 5 3 10 3 2 5 10 3 1 2 3 8 8 4 -3 -0 0 0 1 1 1 1 1 1 1 1 1 1 1 2 2 2 1 0 0 0 0 0 0 0 0 -0 -1 -1 -1 -1 -1 -1 -1 0 1 1 1 0 -0 0 0 0 0 0 -0 -1 -1 -1 -1 -0 -0 -0 -0 0 0 1 0 0 -0 -0 0 0 0 -0 -1 -1 -2 -2 -2 -1 -1
-2 -1 -0 1 2 2 3 6 9 12 13 15 15 13 10 11 8 3 2 -0 1 4 8 3 1 1 1 8 8 3 -4 -1 0 0 1 1 2 2 1 1 2 2 1 1 1 2 2 2 2 1 0 -0 0 0 0 0 -0 -0 -1 -1 -1 -2 -2 -1 -0 0 1 1 1 0 0 0 1 1 0 -0 -0 -1 -1 -1 -1 -0 -0 -0 -0 0 0 1 0 0 -0 -0 0 1 0 -0 -1 -1 -2 -2 -2 -1 -1
-2 -2 -1 1 2 3 3 5 7 10 11 13 14 13 9 9 9 6 0 -0 3 7 10 5 2 0 0 6 8 7 2 1 1 1 1 1 2 2 2 2 2 2 1 1 1 2 3 3 2 1 0 0 -0 0 0 0 -0 -0 -0 -1 -1 -2 -2 -1 -0 0 1 1 1 0 0 1 1 1 0 -0 -0 -1 -1 -1 -1 -1 -0 -0 -0 0 0 1 1 0 -0 -1 -0 0 1 -0 -0 -1 -2 -2 -2 -1 -1
-2 -2 -1 -1 1 3 4 4 5 7 9 11 12 12 11 8 7 6 5 3 6 10 13 8 3 -0 -0 3 8 11 8 2 1 2 1 1 2 2 2 2 2 2 2 1 1 2 3 3 2 1 0 0 -0 0 0 0 0 -0 -0 -0 -1 -2 -2 -1 -0 1 1 1 1 1 1 1 1 1 0 -0 -1 -1 -1 -1 -1 -1 -1 -0 -0 0 0 1 1 1 -0 -1 -1 0 1 0 -1 -1 -1 -2 -2 -2 -1
-1 -2 -2 -1 -0 1 3 4 5 6 6 8 10 11 12 9 5 5 9 10 12 13 11 5 1 -0 1 1 4 7 7 1 1 2 2 1 1 1 2 2 2 2 2 1 1 2 3 3 3 1 0 0 -0 -0 0 0 0 0 0 -0 -1 -2 -2 -1 -0 0 1 1 1 1 1 1 1 1 0 -0 -1 -1 -0 -0 -1 -1 -1 -1 -0 0 0 1 1 1 0 -0 -1 -0 1 0 -0 -1 -1 -2 -2 -2 -1
-1 -1 -2 -2 -1 -0 2 3 3 4 5 6 8 11 11 11 9 7 8 15 17 14 5 1 -0 0 2 1 -0 1 6 4 3 1 1 1 1 1 2 2 2 1 1 2 2 2 3 3 2 1 1 0 -0 -0 0 0 1 1 1 0 -1 -2 -2 -2 -1 0 0 1 1 1 1 1 1 1 1 0 -1 -1 -1 0 0 -0 -1 -1 -1 0 0 0 1 1 1 0 -0 -0 0 1 0 -1 -1 -2 -2 -2 -2
0 -1 -1 -1 -1 -1 0 2 2 2 3 3 5 8 11 12 11 10 9 13 16 14 3 1 0 1 2 1 -1 -1 3 6 5 3 1 1 0 1 1 2 1 1 1 2 2 2 2 3 2 1 1 0 -0 0 0 1 1 1 1 0 -1 -2 -2 -2 -1 -0 0 1 1 2 2 1 1 1 1 1 0 -1 -1 -0 1 1 -1 -1 -1 -0 -0 0 1 1 1 1 0 -0 -0 0 0 -0 -1 -1 -2 -2 -2
1 0 -1 -1 -1 -1 -0 0 1 2 2 1 1 4 9 10 11 12 12 11 11 11 6 4 2 1 1 1 -0 -1 1 4 4 4 3 1 1 1 1 1 1 0 0 1 2 3 3 2 2 1 1 -0 -0 0 0 1 1 2 1 0 -1 -2 -2 -1 -1 -0 0 1 1 2 2 1 1 0 1 1 1 -0 -1 -0 1 1 1 -1 -1 -1 -1 -0 0 1 1 1 1 0 -0 0 0 0 -0 -1 -1 -2 -2
1 0 -0 -1 -1 -1 -1 -0 0 1 1 0 -1 -0 3 7 9 11 13 11 10 8 7 8 5 1 -0 0 -0 -1 -1 0 2 5 7 5 3 1 1 1 0 -0 -0 1 2 3 3 2 2 1 1 0 -0 -0 0 1 1 1 1 0 -1 -2 -2 -1 -1 -0 0 0 1 2 2 1 0 0 1 1 1 0 -1 -1 0 1 2 1 -0 -1 -1 -0 -0 0 1 1 1 1 0 0 0 0 -0 -1 -1 -1 -1
1 -0 -1 -1 -1 -1 -1 -1 -0 0 1 1 -0 -2 -2 2 6 9 10 10 9 9 10 9 6 2 -2 -1 -1 -1 -2 -2 1 5 7 7 6 4 3 2 0 -0 -1 1 2 3 3 2 1 1 1 0 0 0 0 1 1 0 0 -0 -1 -2 -2 -1 -0 1 2 1 1 1 2 1 1 0 0 1 1 1 -0 -1 0 1 2 1 0 -0 -1 -1 -0 0 1 1 1 1 1 0 -0 -0 -0 -1 -1 -1 -1
1 -1 -2 -2 -2 -2 -1 -1 -1 -0 0 0 0 -1 -2 -2 2 5 7 7 9 10 10 7 5 2 -3 -1 -0 -1 -1 -1 2 6 8 7 7 7 7 4 1 -0 -0 1 2 3 3 2 1 1 1 1 1 1 1 1 0 -0 -0 -1 -2 -2 -3 -1 1 2 1 1 1 1 2 2 1 1 0 1 1 1 -0 -1 -0 1 2 2 1 0 -0 -0 -0 -0 0 0 1 1 1 1 -0 -1 -1 -1 -1 -1 -0
4 1 -1 -2 -2 -2 -2 -1 -1 -1 -1 -1 -1 -0 -1 -1 -1 2 5 6 8 10 11 7 4 -0 -3 -1 -0 -0 -0 0 3 6 9 8 8 9 10 5 2 -0 1 2 2 3 2 1 1 1 1 2 2 2 2 2 1 -0 -1 -1 -2 -3 -3 0 2 2 0 -0 0 1 1 2 1 1 0 1 1 1 0 -0 -0 0 1 1 1 1 0 -0 -0 -0 0 0 1 1 1 1 0 -1 -1 -1 -1 -0 -0
8 5 1 -0 -1 -2 -2 -2 -1 -1 -2 -2 -2 -2 -1 -1 -1 -1 1 5 9 11 11 9 5 1 -3 -2 -1 -0 0 0 2 5 9 9 9 9 10 5 1 -0 1 2 2 2 2 2 1 1 2 2 2 3 3 2 1 0 -1 -1 -2 -3 -3 -1 1 1 -1 -1 -0 1 1 2 1 1 0 1 1 1 0 0 0 0 1 1 1 1 0 0 -0 0 0 0 1 1 1 1 0 -0 -1 -1 -1 -0 0
8 7 4 2 -0 -1 -2 -2 -2 -1 -2 -2 -2 -3 -3 -2 -2 -1 -1 4 9 13 13 10 8 5 2 -1 -1 -0 -0 -0 0 2 7 10 10 9 7 1 -1 -0 1 2 2 2 2 2 2 2 2 2 3 3 3 3 2 0 -0 -1 -2 -2 -2 -1 0 0 -1 -1 -0 1 1 2 2 1 -0 0 0 0 0 0 0 0 1 1 1 1 0 0 0 0 0 0 1 1 1 1 0 -0 -1 -1 -0 -0 0
4 7 6 4 1 -1 -2 -2 -2 -2 -2 -1 -2 -3 -3 -3 -2 -1 0 4 9 12 13 11 8 6 6 1 -0 -0 -0 -0 -1 0 6 10 10 7 3 -1 -2 -1 1 2 2 2 2 2 2 2 2 2 3 3 4 3 2 0 -0 -1 -1 -2 -2 -1 0 1 -1 -2 -0 1 0 2 2 1 -0 -0 -0 -0 0 0 0 0 0 1 1 1 1 0 -0 -0 0 0 0 1 1 1 0 0 -0 -0 -0 0 1
1 3 6 5 3 1 -1 -2 -3 -3 -2 -1 -1 -1 -2 -2 -1 1 2 6 9 10 10 11 10 8 8 6 2 -1 -0 -0 -1 0 6 12 10 5 0 -2 -1 -0 1 1 2 2 3 3 2 2 2 2 3 3 3 2 1 0 0 -0 -1 -1 -2 -1 0 1 -1 -2 -1 0 0 1 2 1 0 -0 -0 -0 0 0 0 -0 0 1 1 1 1 0 -0 -0 -0 -0 0 0 1 0 0 0 0 -0 0 0 1
4 1 2 4 4 2 -0 -2 -3 -3 -2 -1 -0 -0 -1 0 1 2 4 6 7 6 5 8 10 10 9 8 3 -1 -1 -0 -0 0 5 11 10 5 1 -1 0 1 1 1 2 2 3 3 2 2 2 2 2 2 2 1 1 0 0 0 -0 -1 -2 -1 -0 0 -1 -1 -0 0 1 1 1 1 1 1 0 -0 0 0 -0 -0 0 0 1 1 1 0 -0 -1 -1 -0 -0 0 0 0 0 0 0 0 0 1 1
14 7 1 2 3 3 1 -1 -2 -2 -2 -1 -0 -0 -1 -0 1 1 2 3 3 2 2 3 5 9 12 9 5 0 -2 0 0 1 2 6 6 4 1 -0 1 2 2 2 2 2 2 3 3 2 2 2 2 2 1 0 -0 0 0 1 1 -0 -1 -2 -1 -1 0 0 1 1 1 1 1 1 1 1 1 0 0 0 -0 -0 0 0 1 1 1 0 -0 -1 -1 -1 -0 -0 0 0 0 0 0 0 1 1 1
21 18 10 3 2 3 3 0 -1 -2 -3 -2 -1 -1 -2 -1 -1 -1 -1 -0 0 1 2 1 2 6 16 9 4 0 -3 -0 1 1 2 4 3 1 0 0 1 2 2 2 2 2 3 3 3 3 2 2 2 1 -0 -1 -1 -0 1 1 1 0 -1 -2 -2 -1 0 1 1 2 2 1 1 1 1 2 1 1 0 0 0 0 0 0 1 1 1 0 -0 -1 -1 -1 -1 -0 -0 -0 -0 0 0 1 1 1 1
18 23 23 12 4 1 2 1 0 -1 -1 -1 -1 -0 0 -1 -2 -2 -3 -2 -1 -1 0 0 1 5 17 7 2 -1 -2 -1 1 1 2 3 3 2 0 -0 0 1 2 2 2 3 3 3 3 3 2 2 2 1 -1 -1 -1 -0 1 1 1 1 -1 -2 -2 -1 0 1 2 2 2 1 1 1 1 1 1 1 1 0 0 0 0 1 1 1 1 0 0 -0 -0 -0 -0 -0 -0 -0 0 0 0 1 1 1 1
11 17 26 24 13 3 1 1 0 0 0 1 2 4 7 2 -1 -2 -2 -3 -3 -3 -2 -1 -0 4 15 8 1 -2 1 1 1 1 2 3 4 2 0 -1 -1 0 1 2 2 3 3 3 3 3 3 3 2 1 -0 -1 -1 -0 1 1 1 1 -0 -1 -1 -1 0 1 2 2 2 1 1 1 1 1 1 1 0 0 0 1 1 1 1 1 1 0 0 -0 -0 -0 -0 0 0 0 0 0 0 1 1 1 0
4 9 17 28 24 13 2 1 1 1 1 2 4 7 12 5 0 -2 -2 -4 -4 -4 -3 -2 0 5 14 10 3 -0 5 4 1 -1 2 3 4 3 2 -1 -1 0 1 2 2 3 3 3 3 3 3 3 3 2 0 -0 -0 -0 0 1 1 0 -0 -1 -1 -0 1 1 1 1 1 1 1 1 1 1 0 0 0 0 0 1 1 1 1 1 0 0 0 0 0 0 0 0 1 0 0 0 0 1 1 0 0
2 4 7 20 29 27 10 4 2 2 2 3 4 6 8 4 0 -2 -2 -4 -5 -5 -5 -3 2 8 12 7 4 5 10 7 1 -3 2 2 4 5 7 3 1 0 1 2 2 3 3 3 3 3 3 4 3 2 1 1 0 0 0 0 0 0 -1 -1 -1 0 1 1 1 1 1 1 1 1 1 0 0 0 0 0 0 1 0 0 0 0 0 0 0 0 0 0 0 0 1 0 0 0 0 1 1 0 0
5 3 3 11 23 31 28 14 7 4 2 3 3 3 3 1 -0 -1 -1 -3 -4 -4 -3 -3 2 6 6 3 3 6 12 9 2 -3 1 2 3 5 9 8 4 1 1 2 2 2 2 2 2 3 3 4 4 3 2 1 1 0 0 0 -0 -0 -1 -1 -1 0 1 1 1 1 0 0 1 1 1 0 0 0 1 1 1 0 0 0 0 0 0 0 0 0 0 0 0 1 0 0 0 0 0 0 1 1 0
5 6 3 5 13 25 35 26 18 11 6 4 3 2 2 1 1 1 1 -1 -0 4 10 3 0 1 4 2 2 3 8 9 3 -3 1 2 3 4 6 7 2 -1 2 1 1 1 2 2 2 3 3 3 3 3 3 2 1 1 0 -0 -1 -1 -1 -1 -0 0 1 1 1 0 0 0 1 1 0 0 0 0 1 1 1 0 0 1 1 0 0 0 0 0 0 0 0 0 0 0 0 0 0 0 1 1 1
-3 -0 -0 2 7 16 28 29 26 20 16 12 8 6 3 3 3 4 3 2 5 10 17 7 1 -1 -1 1 1 2 3 8 3 -2 1 2 2 3 5 6 1 -2 2 1 1 1 1 1 2 2 3 3 3 2 2 2 2 1 0 -0 -1 -1 -2 -1 -0 1 1 1 1 1 0 0 0 0 0 0 -0 0 1 1 1 1 1 1 1 1 1 0 0 0 0 0 0 0 0 0 0 0 -0 0 0 1 1
-6 -5 -4 -1 4 11 20 25 24 20 18 18 18 17 14 11 9 7 5 6 9 12 12 4 -0 -2 -2 1 2 1 2 6 3 -2 -0 1 2 2 3 4 1 -1 1 1 1 0 0 1 2 3 3 2 2 2 2 2 2 1 0 -0 -1 -2 -2 -1 -0 1 1 1 1 1 0 0 0 0 0 0 0 0 0 1 1 1 1 1 1 1 1 0 0 0 0 0 0 0 0 0 0 0 -0 0 0 0 0
-4 -3 -3 -1 3 8 13 20 22 20 14 13 16 21 26 23 18 12 10 12 13 13 6 2 -0 -1 -0 1 1 0 2 6 3 -1 -1 -0 1 1 2 1 -1 -1 -1 1 1 0 0 1 2 2 2 2 1 1 2 2 2 2 1 -0 -1 -2 -2 -1 -0 0 1 1 1 1 1 0 0 0 1 0 0 0 0 1 1 1 1 1 1 1 0 0 0 0 0 0 0 0 0 -0 -0 -0 0 -0 -0 0 0
-3 -2 -1 0 2 4 8 13 18 19 17 12 10 11 17 24 23 18 14 17 17 12 5 3 1 0 0 0 -0 -0 2 8 5 -1 -2 -1 -0 1 2 3 3 2 -1 1 1 -0 0 1 1 2 2 1 1 1 2 2 2 2 1 0 -1 -2 -2 -2 -1 0 1 1 1 1 1 1 1 1 1 1 0 0 0 0 1 1 1 1 1 0 0 0 1 0 0 0 0 0 0 -0 0 0 0 0 -0 -0 -0
-3 -2 -0 -1 -2 0 5 8 12 15 15 13 9 6 4 12 17 19 14 16 18 16 8 5 2 1 0 0 -1 -1 0 8 6 0 -4 -2 -1 -0 1 3 6 7 3 2 1 0 -0 0 0 1 1 1 1 1 2 2 2 2 2 1 -1 -2 -2 -2 -1 0 1 1 1 1 1 1 1 1 1 1 1 0 0 0 0 1 1 1 1 0 0 0 1 0 0 -0 -0 0 0 0 0 0 0 0 -0 -0 0
-2 -1 1 -2 -3 -1 5 7 9 10 10 10 8 6 3 4 10 17 18 16 17 16 11 6 4 2 1 1 -1 -1 -1 8 7 2 -5 -3 -2 -1 1 3 9 14 11 4 2 2 -0 -1 -0 0 1 1 1 1 2 2 3 3 3 1 0 -1 -1 -1 -1 0 1 1 1 1 1 1 1 1 1 1 1 1 0 0 0 1 1 1 1 1 0 0 0 0 0 -0 -0 0 0 0 0 0 0 0 0 0 0
-2 -1 2 -0 -2 -2 3 5 6 6 7 6 5 4 4 4 7 13 21 21 19 15 10 7 5 3 2 1 -0 -2 -2 2 3 1 -5 -3 -2 -1 1 4 11 16 13 6 5 5 -1 -1 -0 -0 0 0 1 1 2 3 3 4 3 2 1 0 -0 -0 -0 0 1 1 1 1 1 1 1 1 1 1 1 1 1 0 0 1 1 1 1 1 1 1 1 0 0 0 0 0 0 0 0 0 0 0 0 0 0
-2 -1 2 0 -2 -3 -1 2 3 4 4 3 2 2 4 4 6 9 15 20 19 15 10 7 4 3 3 2 1 -1 -3 -3 -2 -2 -3 -2 -1 -1 -0 1 3 5 5 4 6 6 -1 -0 -0 -0 -0 0 1 2 2 3 4 4 4 3 3 2 1 1 0 0 0 1 1 1 1 1 1 1 1 1 1 1 1 0 0 0 0 1 1 1 1 1 1 0 0 0 0 0 0 0 0 0 0 0 0 0 0
-2 -1 1 1 -0 -2 -2 -1 1 3 2 2 1 0 2 3 3 5 9 13 14 13 11 7 4 3 4 3 2 0 -1 -1 -2 -2 -2 -1 -0 -0 1 2 -0 -2 -2 2 5 5 -1 0 0 1 1 1 1 2 2 3 4 4 4 4 3 3 2 2 1 0 0 0 1 1 1 1 1 1 1 1 1 1 1 0 0 0 0 0 1 1 1 1 1 1 1 1 1 1 1 0 0 0 0 0 0 0 0
-1 -1 -1 0 -0 -2 -4 -2 -0 1 0 0 -1 -2 0 1 2 3 6 8 9 10 11 9 6 3 2 3 3 2 -0 -0 -0 -0 0 1 3 7 13 10 6 5 7 8 7 5 -1 0 0 1 2 2 2 2 3 3 3 4 4 4 4 3 3 2 1 1 0 0 1 1 1 1 1 1 1 1 1 1 1 1 0 0 0 0 0 0 0 1 1 1 1 1 1 1 1 1 0 0 0 -0 -0 -0 -0
-2 -1 -1 0 -0 -2 -3 -1 -1 -1 -1 -1 -3 -3 -2 -0 0 2 4 5 5 6 8 9 7 4 2 2 3 2 1 1 2 2 2 3 6 12 18 11 12 18 25 22 14 5 -1 -1 -1 0 1 1 2 3 3 3 3 3 4 4 4 3 3 2 1 1 0 0 0 1 1 1 1 1 1 1 1 1 1 1 0 0 0 0 0 0 0 1 1 1 1 1 1 1 1 1 0 0 -0 -0 -0 -0 0
-2 -1 -1 0 -0 -0 -0 -1 -1 -1 -1 -3 -3 -3 -2 -1 -1 0 3 3 3 3 4 6 6 5 3 2 2 2 1 2 3 3 3 3 6 8 9 5 9 17 28 29 24 14 1 -3 -3 -2 -1 0 2 3 2 3 3 3 4 4 3 3 3 2 2 1 1 1 1 1 1 1 1 1 1 1 1 1 1 1 0 0 0 0 0 0 0 1 1 1 1 1 1 1 1 0 0 -0 -0 -0 -0 -0 0
-3 -1 -0 0 0 0 1 0 0 0 -2 -3 -3 -3 -2 -2 -2 -1 1 1 1 1 1 3 5 5 3 2 2 3 4 4 5 5 5 5 6 7 6 5 6 10 20 28 28 20 5 -3 -5 -4 -3 -1 1 2 2 3 3 3 3 3 2 2 2 2 2 1 1 1 1 1 0 1 1 1 1 1 1 1 1 1 0 0 0 0 0 0 1 1 1 1 1 1 1 1 0 0 -0 -0 -0 -0 0 0 0
-3 -2 -1 0 1 1 1 1 1 0 -1 -2 -3 -3 -2 -3 -2 -1 -1 -1 0 0 -1 1 3 4 3 2 2 3 7 8 8 7 6 5 6 8 9 8 8 11 18 27 26 18 8 -1 -5 -5 -5 -3 -1 1 2 3 3 3 2 2 2 2 2 2 2 2 2 1 1 1 1 1 1 1 1 1 1 1 1 1 1 0 0 0 0 0 1 0 0 1 1 0 0 0 -0 -0 -0 -0 -0 -0 0 0 0
-5 -3 -1 -1 0 1 1 1 1 1 -0 -2 -3 -3 -3 -3 -2 -2 -3 -2 -1 0 -0 0 1 2 2 2 2 2 4 5 6 6 4 3 4 6 8 8 8 10 13 21 21 16 8 1 -2 -4 -5 -4 -2 0 2 2 2 1 1 1 2 2 2 2 2 2 2 2 1 1 1 1 1 1 1 1 1 1 0 0 0 0 0 0 0 0 0 0 0 1 0 0 0 0 -0 -0 -0 -0 -0 -0 0 0 0
-5 -3 1 -1 0 1 0 0 1 1 -1 -2 -3 -3 -3 -3 -2 -2 -2 -3 -2 -0 0 0 0 1 1 1 1 1 1 0 2 3 4 1 1 3 5 4 4 5 7 12 15 16 12 7 4 1 -4 -4 -3 -1 1 1 0 0 1 1 2 2 2 2 2 2 2 2 2 1 1 1 1 1 1 1 1 0 -0 -0 -0 -0 -0 -0 0 0 -0 -0 0 0 0 0 0 0 -0 -0 -0 0 0 -0 -0 0 1
-2 1 4 1 1 2 2 2 1 0 -1 -2 -2 -3 -3 -3 -2 -1 -2 -3 -2 -1 -0 0 0 0 0 0 0 0 -0 -1 1 3 5 1 1 3 6 7 6 5 5 9 15 19 19 14 10 4 -3 -4 -3 -2 -1 -1 -1 -0 1 1 2 2 2 2 2 2 2 2 2 2 2 2 2 1 1 1 0 -0 -1 -1 -1 -1 -0 -0 0 0 -0 -0 0 0 1 0 0 0 0 -0 -0 0 0 0 -0 0 0
-0 3 6 3 2 2 4 3 1 -0 0 -1 -2 -2 -3 -3 -1 -1 -1 -2 -3 -3 -2 -1 -1 -1 -1 -1 -0 -0 0 0 1 1 1 2 4 8 14 18 15 11 6 11 20 27 27 17 10 3 -3 -4 -5 -4 -3 -3 -1 -0 0 1 1 2 2 2 1 1 1 1 2 2 2 2 2 1 1 0 0 -0 -0 -1 -0 -0 -0 -0 0 0 0 0 1 1 1 1 1 0 1 0 0 0 0 1 1 0 0
0 3 5 3 1 -0 1 1 1 0 1 -0 -1 -2 -3 -2 -2 -1 -1 -1 -3 -4 -4 -3 -2 -1 -1 -1 -0 1 2 1 -0 -0 1 6 10 14 18 19 18 14 9 15 26 35 33 17 8 2 -2 -4 -5 -5 -4 -3 -1 -1 -0 1 2 2 1 1 0 0 0 1 2 2 2 1 1 0 0 0 0 0 0 0 0 0 0 0 0 0 1 1 1 1 1 1 1 1 1 1 0 0 0 0 1 1 1
2 3 3 1 -1 -1 0 0 -1 -1 3 4 2 -1 -2 -2 -2 -2 -0 -1 -2 -3 -4 -4 -3 -2 0 -0 0 2 3 0 -1 0 4 6 10 13 13 13 13 13 11 20 33 39 31 14 5 2 -0 -2 -3 -3 -3 -2 -1 -0 1 2 2 1 1 -0 -1 -1 -0 1 1 1 0 -0 -1 -1 -1 -0 1 1 1 1 1 1 0 0 0 0 1 1 1 1 2 2 1 1 1 1 1 0 -0 -0 0 1 1
1 2 3 1 -0 -1 -0 -1 -2 -2 1 4 3 0 -1 -2 -2 -1 0 0 -1 -2 -3 -5 -5 -2 1 1 1 1 2 -2 -1 2 5 3 5 7 6 9 13 17 20 29 35 33 21 9 3 2 3 2 1 0 -1 -1 -0 0 1 2 3 2 1 -0 -1 -2 -1 -0 0 -0 -1 -2 -2 -2 -1 -0 1 1 1 1 1 1 0 0 0 0 0 1 1 1 2 2 2 1 1 1 1 0 -0 -0 0 1 1
0 2 4 3 2 0 -1 -1 -1 -1 -1 3 3 1 -1 -0 -0 -0 0 1 1 -0 -1 -4 -5 -4 -0 2 1 -0 1 -3 -2 1 5 3 3 4 2 9 16 22 25 28 24 18 9 2 0 2 5 5 5 4 2 2 1 1 2 3 4 3 2 0 -1 -1 -1 0 0 -0 -1 -2 -2 -2 -1 0 1 2 1 1 1 1 0 0 0 0 0 1 1 1 1 1 1 1 1 1 1 0 -0 -0 -0 1 1
1 2 3 3 2 1 1 1 -1 -2 0 1 1 0 0 1 1 -0 0 2 1 0 -1 -3 -4 -4 -3 -0 0 -1 -2 -1 -1 -0 3 2 1 0 -1 6 12 15 15 12 8 2 -1 -2 -1 1 4 7 7 5 3 3 2 1 2 3 3 3 2 0 -1 -1 1 1 1 0 -1 -1 -1 -1 -0 1 2 2 2 1 1 1 1 1 0 0 0 1 1 1 1 1 1 1 1 1 1 0 0 -0 -0 0 1
1 2 2 2 2 2 3 1 -0 -0 1 -0 -1 0 2 1 2 2 1 1 0 0 0 -3 -3 -3 -4 -3 -2 -1 -2 0 -0 -1 -1 -1 0 1 -2 2 6 7 6 2 -2 -5 -4 1 2 2 2 6 6 5 3 3 2 1 2 2 3 3 3 1 0 0 2 2 2 1 -0 -0 -0 0 1 2 2 2 2 2 2 1 1 1 1 1 1 1 1 1 1 1 1 1 1 1 1 1 1 0 0 0 0
1 1 1 1 2 2 1 0 1 2 1 1 1 1 -0 0 2 4 3 1 0 1 1 -3 -4 -4 -3 -4 -3 -1 -1 -1 -1 -1 -2 -5 -1 1 -2 1 4 4 -0 -3 -5 -3 3 8 7 4 -1 2 4 4 3 3 2 1 1 1 2 4 4 3 1 1 1 1 1 0 -0 -0 0 1 2 2 3 3 2 2 2 2 2 1 1 1 2 2 2 1 1 1 1 1 2 2 2 1 1 1 1 1 1
1 1 1 1 1 1 1 3 3 2 0 2 2 1 -1 0 1 2 2 1 1 0 -1 -3 -4 -5 -3 -3 -3 -2 -1 -3 -3 -2 -1 -5 -3 -1 -2 -0 2 3 2 1 1 4 10 11 6 0 -5 -1 2 4 2 3 2 1 -0 -0 1 4 7 5 3 1 0 0 0 0 -0 0 1 2 3 3 3 3 2 2 2 2 2 1 1 1 1 2 2 1 1 1 1 1 2 2 2 1 1 0 0 0 0
1 1 0 -0 0 1 3 4 2 -0 0 2 2 1 0 1 1 1 1 1 1 -0 -1 -1 -3 -4 -4 -3 -3 -2 -1 -2 -3 -2 1 -2 -3 -3 -2 -2 -2 -1 3 2 5 7 8 6 1 -4 -6 -1 2 3 3 3 2 0 -1 -1 -0 2 8 9 6 2 0 -0 -1 -0 -0 1 2 3 3 3 3 3 2 2 2 2 2 2 2 1 1 1 1 1 1 1 2 2 2 1 1 1 1 0 0 0 -0
1 0 -0 0 0 1 2 1 -0 -1 -0 1 3 4 2 1 1 1 1 2 1 1 1 -1 -3 -4 -4 -3 -2 -2 -3 -3 -3 -2 -1 -0 -2 -4 -4 -3 -2 -0 3 1 3 5 2 0 -3 -4 -1 -0 -0 1 4 2 1 0 0 -1 -1 0 5 10 9 6 1 -0 -1 -1 -1 0 2 3 4 4 3 3 2 2 2 2 3 2 2 2 2 1 1 1 1 1 2 2 2 1 0 -0 0 -0 -0 -0 -0
1 0 0 1 0 -0 -1 -1 0 1 -1 1 6 9 5 2 -0 0 3 2 2 1 1 -3 -3 -2 -2 -2 -2 -2 -4 -5 -5 -4 -4 -1 -1 -3 -2 -2 -2 -1 0 1 2 3 1 -1 -1 -0 2 -2 -3 -1 1 -0 -0 0 1 -1 -1 -1 -0 6 10 10 5 2 0 -1 -1 -1 1 2 3 3 3 2 2 1 1 2 3 3 3 3 2 2 1 1 1 1 2 2 1 0 -0 -1 -1 -1 -1 -1 -1
1 0 0 1 0 -0 1 2 3 4 3 4 7 7 3 0 -0 1 4 1 -0 -1 -3 -5 -2 2 1 1 0 -1 -3 -3 -4 -4 -3 -3 -3 -3 0 -2 -1 0 1 0 0 1 2 1 2 3 -0 -3 -2 -1 -2 -2 -1 0 -1 -1 -2 -2 -3 0 6 10 10 5 2 0 -1 -1 -1 1 2 2 2 2 1 0 1 2 3 3 3 4 3 2 1 1 0 1 1 1 1 0 -0 -1 -1 -1 -1 -1 -1
2 1 0 0 0 1 3 3 3 4 4 5 4 2 -0 -0 0 0 -0 -1 -2 -2 -2 1 4 5 0 4 4 2 1 -1 -4 -5 -3 -3 -4 -4 -1 -2 -0 2 1 -1 -2 -1 1 2 3 3 -0 -1 -1 -2 -4 -2 -0 1 -1 -2 -2 -3 -4 -3 1 6 10 8 5 2 -0 -1 -1 -0 1 1 1 0 -0 -0 0 1 2 3 4 4 4 3 2 1 1 1 1 1 1 -0 -1 -1 -1 -2 -2 -2 -2
Height
5819 5820 5822 5824 5827 5830 5833 5835 5837 5838 5840 5841 5841 5842 5844 5848 5848 5848 5851 5854 5855 5855 5855 5858 5858 5859 5862 5861 5862 5863 5864 5866 5867 5868 5870 5871 5872 5873 5874 5875 5876 5877 5878 5879 5880 5881 5881 5882 5883 5883 5884 5885 5886 5887 5888 5888 5889 5889 5890 5891 5891 5892 5893 5894 5894 5895 5896 5896 5897 5898 5898 5898 5899 5899 5899 5900 5901 5901 5902 5902 5903 5903 5904 5904 5904 5905 5905 5906 5906 5906 5906 5907 5907 5907 5907 5907 5907 5907 5907 5908 5908 5908 5908
5818 5819 5820 5821 5824 5827 5830 5833 5835 5837 5838 5839 5841 5841 5841 5845 5846 5846 5848 5850 5852 5853 5854 5854 5855 5857 5859 5859 5860 5861 5863 5864 5865 5867 5868 5869 5870 5871 5872 5873 5874 5875 5876 5877 5878 5879 5880 5881 5881 5882 5883 5884 5885 5886 5886 5887 5888 5888 5889 5890 5890 5891 5892 5893 5893 5894 5895 5895 5896 5897 5897 5898 5898 5898 5899 5899 5900 5900 5901 5902 5902 5903 5903 5903 5904 5904 5904 5905 5905 5905 5905 5906 5906 5906 5906 5906 5906 5906 5907 5907 5907 5908 5908
5817 5818 5818 5819 5822 5825 5827 5830 5832 5834 5835 5837 5839 5840 5841 5843 5843 5843 5846 5848 5849 5851 5852 5853 5854 5855 5857 5858 5858 5859 5861 5862 5863 5865 5866 5867 5868 5869 5871 5872 5873 5874 5875 5876 5877 5878 5879 5879 5880 5881 5882 5883 5884 5884 5885 5886 5887 5887 5888 5888 5889 5890 5891 5892 5892 5893 5893 5894 5895 5895 5896 5897 5897 5898 5898 5898 5899 5899 5900 5901 5901 5902 5902 5903 5903 5903 5904 5904 5904 5904 5905 5905 5905 5905 5906 5906 5906 5906 5906 5906 5907 5907 5907
5815 5816 5817 5818 5820 5823 5824 5827 5829 5832 5833 5834 5836 5839 5841 5839 5839 5842 5844 5845 5847 5849 5850 5851 5852 5854 5855 5857 5858 5858 5859 5860 5862 5863 5864 5866 5867 5868 5869 5870 5871 5872 5873 5874 5876 5877 5878 5878 5879 5880 5881 5882 5882 5883 5884 5885 5885 5886 5887 5887 5888 5889 5889 5890 5891 5892 5893 5893 5894 5894 5895 5896 5896 5897 5897 5898 5898 5899 5899 5900 5900 5901 5901 5902 5902 5903 5903 5903 5903 5904 5904 5904 5904 5905 5905 5905 5905 5905 5905 5906 5906 5906 5907
5813 5814 5816 5817 5818 5820 5823 5824 5827 5829 5831 5832 5834 5836 5838 5837 5838 5840 5842 5844 5845 5846 5848 5850 5850 5851 5853 5855 5856 5856 5857 5858 5860 5861 5863 5864 5865 5866 5868 5868 5869 5871 5872 5873 5874 5875 5876 5877 5878 5878 5879 5880 5881 5882 5883 5883 5884 5885 5885 5886 5887 5888 5888 5889 5890 5891 5892 5892 5893 5894 5894 5895 5895 5896 5897 5897 5898 5898 5898 5899 5899 5900 5900 5901 5901 5902 5902 5903 5903 5903 5903 5903 5904 5904 5904 5904 5904 5904 5904 5905 5905 5906 5906
5810 5812 5813 5815 5816 5818 5820 5822 5824 5826 5828 5830 5831 5833 5835 5837 5837 5837 5839 5841 5842 5843 5846 5846 5847 5848 5849 5853 5854 5854 5855 5857 5858 5859 5861 5862 5863 5865 5866 5867 5868 5869 5870 5871 5873 5873 5875 5875 5876 5877 5878 5879 5879 5880 5881 5882 5883 5883 5884 5885 5885 5886 5887 5888 5889 5890 5890 5891 5892 5893 5893 5894 5894 5895 5896 5896 5897 5897 5897 5898 5898 5899 5899 5900 5900 5901 5901 5902 5902 5902 5902 5903 5903 5903 5903 5904 5904 5903 5903 5904 5904 5905 5905
5808 5809 5811 5813 5815 5816 5817 5820 5822 5823 5825 5827 5829 5830 5832 5834 5835 5836 5836 5838 5840 5842 5841 5843 5844 5846 5847 5850 5852 5853 5854 5855 5856 5858 5859 5860 5862 5863 5864 5865 5866 5867 5868 5869 5871 5872 5873 5874 5875 5876 5876 5877 5878 5879 5880 5880 5881 5882 5883 5883 5884 5885 5886 5887 5888 5888 5889 5890 5891 5892 5892 5893 5894 5894 5894 5895 5895 5896 5896 5897 5897 5898 5898 5899 5899 5900 5900 5901 5901 5901 5901 5902 5902 5903 5903 5903 5903 5903 5903 5903 5903 5904 5904
5806 5807 5808 5811 5813 5814 5815 5817 5819 5821 5822 5824 5826 5828 5829 5830 5833 5835 5833 5835 5837 5839 5842 5841 5842 5843 5844 5847 5850 5852 5853 5853 5854 5856 5857 5858 5860 5861 5862 5863 5865 5866 5867 5868 5869 5870 5871 5873 5873 5874 5875 5876 5877 5878 5878 5879 5880 5880 5881 5882 5883 5883 5884 5885 5887 5888 5888 5889 5890 5890 5891 5892 5893 5893 5893 5894 5894 5895 5895 5896 5896 5897 5897 5898 5898 5899 5899 5900 5900 5900 5900 5901 5901 5902 5902 5902 5903 5903 5902 5902 5903 5903 5903
5803 5805 5806 5808 5810 5812 5813 5814 5816 5819 5821 5821 5823 5825 5826 5828 5830 5832 5833 5833 5835 5838 5839 5839 5840 5841 5842 5845 5848 5850 5851 5852 5853 5854 5855 5857 5858 5859 5860 5862 5863 5864 5865 5866 5867 5868 5870 5871 5872 5872 5873 5874 5875 5876 5877 5878 5878 5879 5880 5881 5881 5882 5883 5884 5885 5886 5887 5888 5888 5889 5890 5891 5891 5892 5892 5893 5893 5893 5894 5895 5895 5895 5896 5897 5897 5898 5898 5899 5899 5899 5899 5900 5900 5900 5901 5901 5902 5902 5901 5901 5902 5902 5903
5801 5802 5803 5805 5807 5809 5811 5812 5814 5816 5818 5819 5821 5822 5824 5826 5828 5829 5831 5834 5835 5835 5837 5839 5839 5839 5840 5842 5844 5848 5849 5850 5851 5852 5853 5854 5856 5857 5858 5860 5861 5862 5863 5864 5865 5867 5868 5869 5870 5871 5871 5872 5873 5874 5875 5876 5877 5878 5878 5879 5880 5881 5882 5883 5884 5885 5886 5886 5887 5888 5889 5889 5890 5891 5891 5891 5892 5892 5893 5893 5894 5894 5895 5895 5896 5897 5897 5898 5898 5898 5898 5898 5899 5899 5900 5900 5900 5901 5901 5900 5900 5901 5902
5798 5800 5801 5803 5804 5806 5808 5810 5811 5813 5815 5817 5819 5820 5821 5823 5825 5826 5828 5831 5833 5833 5833 5834 5835 5837 5838 5840 5841 5844 5848 5849 5849 5850 5851 5852 5853 5855 5856 5858 5859 5860 5861 5863 5863 5865 5866 5867 5868 5869 5870 5870 5872 5873 5873 5874 5875 5876 5877 5878 5878 5879 5880 5881 5882 5883 5884 5885 5886 5887 5888 5888 5889 5889 5890 5890 5890 5891 5892 5892 5893 5893 5893 5894 5895 5895 5896 5896 5897 5897 5898 5898 5898 5898 5899 5899 5899 5899 5900 5900 5899 5900 5900
5796 5797 5799 5800 5802 5804 5806 5807 5809 5810 5812 5813 5816 5818 5819 5820 5822 5824 5826 5828 5830 5831 5829 5832 5833 5835 5836 5838 5839 5842 5845 5848 5848 5849 5849 5850 5851 5853 5854 5855 5857 5858 5859 5861 5862 5863 5864 5865 5866 5867 5868 5869 5870 5871 5872 5873 5874 5875 5875 5876 5877 5878 5878 5879 5881 5882 5883 5884 5885 5885 5886 5887 5887 5888 5888 5889 5889 5890 5890 5891 5892 5892 5893 5893 5893 5894 5894 5895 5896 5896 5897 5897 5897 5897 5898 5898 5898 5898 5898 5899 5899 5899 5899
5793 5794 5796 5798 5799 5801 5803 5805 5806 5808 5809 5810 5813 5815 5817 5818 5819 5821 5823 5825 5827 5827 5826 5829 5831 5832 5834 5835 5837 5839 5842 5845 5847 5848 5848 5848 5849 5851 5852 5853 5854 5856 5857 5858 5860 5861 5863 5863 5864 5865 5866 5867 5868 5869 5870 5871 5872 5873 5874 5874 5875 5876 5877 5878 5879 5880 5881 5882 5883 5884 5885 5885 5886 5886 5887 5888 5888 5888 5889 5890 5891 5891 5892 5892 5892 5893 5893 5893 5894 5895 5895 5896 5896 5896 5896 5897 5897 5897 5897 5898 5898 5898 5898
5790 5792 5793 5795 5797 5798 5800 5802 5803 5805 5807 5808 5810 5812 5813 5816 5817 5818 5820 5822 5823 5824 5825 5827 5829 5830 5832 5833 5835 5837 5839 5842 5844 5846 5847 5847 5848 5848 5851 5851 5852 5853 5855 5857 5858 5860 5861 5862 5863 5863 5864 5865 5866 5867 5868 5869 5870 5871 5872 5873 5873 5874 5875 5876 5878 5879 5880 5880 5881 5882 5883 5884 5884 5885 5885 5886 5887 5888 5888 5888 5889 5890 5890 5891 5891 5891 5892 5892 5893 5893 5894 5894 5895 5895 5895 5895 5896 5896 5896 5897 5897 5897 5898
5787 5788 5790 5792 5794 5796 5798 5799 5801 5803 5804 5805 5807 5808 5810 5812 5814 5816 5818 5819 5821 5823 5824 5825 5827 5828 5829 5831 5833 5835 5837 5839 5842 5844 5845 5846 5846 5847 5848 5849 5850 5852 5853 5854 5856 5858 5859 5860 5861 5862 5863 5864 5865 5866 5867 5868 5868 5869 5870 5871 5872 5873 5873 5875 5877 5878 5879 5879 5880 5881 5882 5882 5883 5883 5884 5885 5886 5886 5886 5887 5888 5889 5889 5890 5890 5890 5890 5891 5891 5892 5893 5893 5893 5894 5894 5894 5894 5895 5895 5895 5896 5896 5896
5783 5785 5787 5789 5791 5793 5795 5797 5798 5800 5801 5803 5804 5806 5808 5809 5811 5814 5815 5817 5819 5820 5821 5823 5824 5825 5827 5828 5830 5832 5834 5837 5839 5842 5843 5844 5845 5846 5846 5848 5849 5849 5851 5853 5854 5856 5857 5858 5859 5860 5861 5862 5863 5864 5865 5866 5867 5868 5868 5869 5870 5871 5872 5873 5875 5876 5878 5878 5878 5879 5880 5880 5881 5882 5882 5883 5884 5885 5885 5886 5886 5887 5888 5888 5888 5889 5889 5889 5890 5891 5891 5892 5892 5893 5893 5893 5893 5893 5894 5894 5894 5895 5895
5781 5782 5784 5786 5788 5790 5792 5794 5796 5797 5799 5800 5802 5803 5805 5806 5808 5811 5813 5814 5816 5818 5819 5820 5821 5822 5824 5826 5828 5830 5832 5834 5837 5839 5840 5842 5843 5844 5846 5847 5847 5848 5849 5851 5852 5853 5854 5856 5857 5858 5859 5860 5861 5863 5863 5864 5865 5866 5867 5868 5868 5869 5870 5872 5873 5875 5876 5876 5876 5877 5878 5879 5879 5880 5881 5882 5883 5883 5884 5884 5885 5886 5886 5887 5887 5888 5888 5888 5889 5889 5890 5890 5891 5891 5892 5892 5892 5892 5893 5893 5893 5894 5894
5779 5780 5782 5783 5785 5788 5789 5791 5793 5795 5796 5798 5799 5801 5803 5804 5805 5807 5809 5812 5814 5815 5817 5818 5818 5819 5821 5823 5825 5827 5829 5831 5834 5836 5838 5839 5841 5842 5843 5844 5845 5846 5848 5849 5850 5851 5853 5853 5855 5856 5858 5859 5860 5861 5862 5863 5863 5864 5865 5866 5867 5868 5868 5870 5872 5873 5874 5873 5874 5875 5876 5877 5878 5878 5879 5880 5881 5882 5882 5883 5883 5884 5885 5885 5886 5886 5887 5887 5888 5888 5888 5889 5889 5890 5890 5891 5891 5891 5891 5892 5892 5893 5893
5777 5778 5779 5781 5783 5785 5787 5788 5790 5792 5793 5795 5796 5798 5800 5801 5803 5804 5806 5809 5811 5813 5814 5815 5817 5817 5818 5820 5822 5824 5827 5828 5830 5833 5836 5837 5838 5840 5841 5842 5843 5845 5846 5848 5848 5849 5851 5852 5853 5854 5856 5857 5858 5859 5860 5861 5862 5863 5863 5864 5865 5866 5867 5868 5870 5872 5871 5871 5872 5873 5874 5876 5876 5877 5877 5878 5879 5880 5881 5881 5882 5883 5883 5884 5884 5885 5885 5886 5886 5887 5887 5888 5888 5888 5889 5889 5889 5890 5890 5890 5891 5891 5892
5775 5776 5777 5778 5780 5782 5784 5786 5787 5789 5790 5792 5794 5795 5797 5799 5800 5802 5803 5806 5808 5810 5812 5813 5814 5815 5816 5817 5819 5822 5824 5826 5828 5830 5834 5835 5836 5838 5838 5840 5842 5843 5844 5846 5847 5848 5849 5850 5851 5853 5854 5855 5856 5857 5858 5859 5860 5861 5862 5863 5863 5864 5865 5866 5868 5869 5869 5869 5871 5873 5873 5874 5875 5875 5876 5876 5878 5878 5879 5880 5880 5881 5882 5883 5883 5883 5884 5884 5885 5885 5886 5886 5887 5887 5888 5888 5888 5888 5889 5889 5890 5890 5891
5772 5774 5775 5776 5778 5780 5781 5783 5785 5786 5788 5789 5791 5793 5794 5796 5798 5800 5802 5804 5806 5807 5809 5811 5812 5813 5815 5816 5818 5819 5822 5823 5825 5828 5832 5833 5834 5835 5837 5839 5841 5842 5843 5844 5845 5846 5847 5848 5849 5851 5852 5853 5854 5855 5856 5857 5858 5859 5860 5861 5862 5863 5863 5864 5866 5867 5867 5868 5870 5871 5871 5872 5873 5873 5874 5875 5876 5877 5877 5878 5878 5879 5880 5881 5882 5882 5883 5883 5883 5884 5884 5885 5885 5886 5886 5886 5887 5887 5888 5888 5888 5889 5890
5770 5771 5773 5774 5775 5777 5778 5780 5782 5783 5785 5786 5788 5790 5792 5794 5796 5798 5800 5802 5802 5803 5806 5807 5808 5811 5813 5815 5815 5817 5819 5822 5823 5826 5828 5830 5831 5833 5835 5837 5839 5840 5841 5842 5843 5844 5845 5847 5848 5849 5850 5851 5852 5853 5854 5855 5856 5857 5858 5859 5860 5861 5862 5863 5864 5865 5866 5867 5868 5869 5870 5871 5871 5872 5873 5873 5874 5875 5876 5876 5877 5878 5878 5879 5880 5881 5881 5881 5882 5883 5883 5883 5884 5884 5885 5885 5885 5886 5886 5887 5887 5888 5888
5767 5768 5770 5772 5773 5774 5776 5778 5779 5781 5782 5784 5786 5788 5789 5792 5794 5795 5797 5798 5799 5800 5802 5803 5806 5809 5810 5811 5812 5814 5817 5819 5821 5823 5825 5827 5829 5831 5833 5835 5837 5838 5839 5840 5841 5843 5844 5845 5846 5847 5848 5849 5850 5851 5852 5853 5854 5855 5856 5857 5858 5859 5860 5861 5861 5863 5865 5865 5866 5867 5868 5869 5870 5870 5871 5872 5873 5874 5874 5874 5875 5876 5877 5878 5878 5879 5879 5880 5880 5881 5881 5882 5882 5883 5883 5883 5884 5884 5885 5885 5886 5886 5887
5763 5766 5768 5769 5770 5772 5773 5774 5776 5778 5780 5781 5783 5785 5787 5789 5791 5792 5794 5795 5796 5798 5799 5801 5803 5806 5808 5809 5809 5812 5815 5817 5818 5820 5822 5824 5827 5829 5832 5833 5835 5836 5837 5838 5839 5841 5842 5843 5844 5845 5846 5847 5848 5849 5849 5850 5852 5853 5854 5855 5857 5858 5858 5859 5860 5861 5862 5864 5864 5865 5866 5867 5868 5868 5869 5870 5871 5872 5872 5873 5873 5874 5875 5876 5876 5877 5878 5878 5879 5879 5880 5880 5881 5881 5882 5882 5883 5883 5883 5884 5885 5885 5886
5760 5762 5765 5766 5767 5769 5771 5772 5773 5775 5777 5778 5780 5782 5784 5786 5788 5789 5791 5792 5793 5795 5796 5798 5800 5803 5806 5808 5808 5810 5812 5814 5816 5818 5819 5822 5824 5827 5829 5831 5832 5834 5835 5836 5837 5839 5840 5841 5842 5843 5844 5845 5846 5847 5848 5848 5850 5851 5853 5853 5855 5856 5856 5857 5858 5859 5860 5862 5863 5863 5865 5865 5866 5867 5868 5869 5870 5870 5871 5871 5872 5872 5873 5874 5875 5875 5876 5877 5877 5878 5878 5879 5879 5880 5880 5881 5881 5882 5882 5883 5883 5884 5885
5756 5758 5761 5763 5765 5766 5768 5769 5771 5773 5774 5776 5777 5779 5782 5784 5785 5786 5788 5789 5790 5792 5793 5796 5798 5801 5804 5805 5806 5808 5809 5811 5813 5815 5817 5819 5822 5824 5826 5828 5830 5831 5833 5834 5835 5837 5838 5839 5841 5842 5843 5843 5844 5844 5845 5846 5848 5849 5850 5852 5853 5853 5854 5855 5856 5858 5859 5860 5861 5862 5863 5863 5864 5865 5867 5867 5868 5868 5869 5870 5871 5871 5872 5872 5873 5873 5874 5875 5875 5876 5877 5877 5878 5878 5879 5879 5880 5880 5881 5882 5882 5883 5884
5754 5755 5757 5760 5762 5763 5764 5766 5768 5770 5772 5773 5775 5776 5778 5781 5783 5783 5784 5786 5787 5789 5790 5792 5796 5800 5802 5801 5802 5805 5808 5810 5811 5812 5814 5816 5819 5822 5823 5825 5827 5829 5830 5832 5833 5834 5836 5838 5839 5840 5840 5841 5842 5842 5843 5844 5845 5847 5848 5849 5851 5852 5852 5853 5854 5856 5858 5858 5858 5860 5861 5861 5862 5863 5865 5866 5866 5867 5867 5868 5869 5870 5871 5871 5871 5872 5873 5873 5874 5874 5875 5876 5876 5877 5878 5878 5878 5879 5879 5880 5881 5881 5882
5753 5753 5754 5756 5759 5761 5761 5763 5765 5767 5769 5771 5773 5774 5777 5779 5780 5780 5782 5783 5784 5786 5788 5791 5795 5798 5798 5798 5800 5803 5807 5807 5808 5810 5812 5814 5817 5819 5822 5823 5824 5826 5828 5829 5831 5832 5834 5835 5837 5838 5838 5839 5840 5840 5841 5842 5843 5845 5846 5847 5848 5849 5850 5851 5853 5854 5855 5856 5857 5858 5858 5859 5860 5861 5862 5863 5864 5864 5865 5866 5867 5867 5868 5869 5870 5870 5871 5872 5872 5873 5873 5874 5875 5875 5876 5876 5877 5878 5878 5878 5879 5880 5880
5751 5751 5752 5753 5755 5758 5759 5760 5762 5764 5766 5768 5771 5773 5774 5776 5777 5778 5779 5780 5782 5784 5787 5788 5792 5794 5794 5795 5798 5801 5805 5805 5805 5807 5809 5811 5813 5816 5819 5821 5822 5824 5825 5827 5828 5830 5832 5833 5834 5835 5837 5837 5838 5838 5838 5839 5841 5842 5844 5845 5846 5847 5848 5849 5851 5852 5853 5854 5855 5855 5856 5857 5858 5859 5860 5860 5861 5862 5863 5864 5865 5865 5866 5867 5868 5868 5869 5870 5870 5871 5872 5873 5873 5874 5874 5875 5875 5876 5876 5877 5878 5878 5879
5746 5747 5748 5749 5752 5755 5758 5758 5759 5761 5763 5766 5768 5770 5772 5773 5773 5775 5776 5777 5778 5781 5785 5786 5788 5789 5791 5793 5794 5797 5800 5803 5803 5804 5806 5808 5811 5813 5816 5818 5819 5820 5823 5824 5826 5828 5829 5831 5832 5833 5834 5835 5835 5836 5836 5837 5838 5840 5841 5843 5844 5845 5846 5847 5848 5850 5851 5852 5853 5853 5854 5855 5856 5857 5858 5858 5859 5860 5861 5862 5863 5864 5864 5865 5866 5867 5868 5868 5869 5869 5870 5871 5872 5872 5873 5873 5874 5874 5875 5875 5876 5877 5877
5742 5743 5743 5746 5749 5752 5754 5757 5757 5758 5760 5763 5765 5767 5769 5770 5770 5772 5773 5775 5776 5778 5783 5783 5784 5786 5788 5790 5792 5793 5795 5799 5800 5801 5803 5805 5807 5810 5812 5814 5817 5818 5820 5822 5823 5825 5827 5828 5830 5831 5832 5832 5833 5833 5834 5835 5836 5837 5839 5840 5841 5843 5844 5845 5846 5848 5849 5850 5851 5851 5852 5853 5854 5855 5856 5857 5857 5858 5859 5860 5861 5862 5863 5863 5864 5865 5866 5866 5867 5868 5868 5869 5870 5870 5871 5871 5872 5873 5873 5874 5874 5875 5876
5739 5740 5740 5743 5746 5748 5751 5753 5755 5756 5758 5759 5762 5764 5767 5767 5768 5769 5771 5773 5775 5778 5780 5780 5781 5783 5785 5787 5789 5790 5792 5794 5796 5797 5800 5802 5804 5806 5808 5812 5814 5816 5817 5819 5821 5823 5824 5826 5828 5828 5829 5830 5830 5831 5831 5832 5833 5835 5836 5838 5839 5840 5841 5843 5844 5845 5846 5848 5848 5849 5850 5851 5852 5853 5854 5854 5855 5856 5857 5858 5859 5860 5861 5862 5863 5863 5864 5865 5865 5866 5867 5867 5868 5868 5869 5870 5870 5871 5872 5872 5873 5873 5874
5736 5737 5738 5740 5743 5745 5747 5749 5752 5754 5755 5757 5758 5761 5763 5765 5767 5768 5769 5772 5776 5777 5776 5777 5778 5780 5782 5783 5785 5787 5789 5792 5793 5794 5796 5798 5801 5803 5806 5808 5811 5812 5814 5816 5818 5820 5822 5823 5825 5826 5827 5827 5828 5828 5829 5830 5831 5832 5833 5835 5836 5837 5839 5840 5842 5843 5844 5845 5846 5847 5848 5849 5850 5851 5852 5852 5853 5854 5855 5856 5857 5858 5860 5861 5861 5861 5862 5863 5864 5864 5865 5866 5866 5867 5868 5868 5869 5869 5870 5871 5871 5872 5872
5733 5734 5734 5737 5739 5741 5743 5746 5748 5750 5752 5754 5756 5757 5759 5762 5764 5766 5768 5771 5774 5775 5773 5773 5775 5777 5778 5780 5782 5784 5787 5790 5790 5791 5793 5795 5797 5800 5803 5805 5807 5809 5812 5813 5815 5817 5819 5821 5822 5823 5824 5825 5825 5826 5826 5827 5828 5830 5831 5832 5833 5835 5836 5838 5839 5840 5842 5843 5844 5845 5846 5847 5848 5849 5850 5850 5851 5852 5853 5854 5855 5856 5858 5859 5859 5860 5860 5861 5862 5863 5863 5864 5864 5865 5866 5867 5867 5868 5868 5869 5870 5870 5871
5730 5731 5731 5733 5735 5737 5739 5742 5744 5746 5748 5751 5753 5754 5756 5758 5761 5763 5765 5768 5771 5772 5769 5770 5772 5774 5776 5778 5779 5781 5784 5787 5788 5789 5790 5792 5794 5797 5799 5802 5806 5808 5808 5810 5812 5814 5816 5818 5819 5821 5822 5822 5823 5823 5824 5825 5826 5827 5828 5829 5831 5832 5833 5835 5836 5838 5839 5840 5842 5843 5843 5845 5846 5847 5848 5848 5849 5850 5851 5852 5853 5854 5855 5856 5857 5858 5859 5860 5860 5861 5862 5862 5863 5863 5864 5865 5866 5866 5867 5867 5868 5868 5869
5727 5728 5729 5730 5732 5734 5736 5738 5740 5742 5744 5747 5749 5751 5753 5755 5757 5760 5763 5764 5766 5768 5767 5768 5770 5772 5774 5775 5777 5779 5781 5784 5785 5785 5787 5789 5792 5794 5796 5799 5803 5806 5805 5807 5809 5811 5813 5815 5817 5818 5819 5819 5820 5821 5822 5823 5823 5825 5826 5827 5828 5829 5831 5833 5834 5835 5837 5838 5839 5840 5841 5842 5843 5844 5846 5847 5848 5848 5849 5850 5851 5852 5853 5854 5855 5857 5858 5858 5859 5859 5860 5860 5861 5862 5863 5863 5864 5865 5865 5866 5866 5867 5868
5724 5725 5726 5727 5729 5731 5733 5734 5736 5738 5741 5743 5745 5747 5750 5752 5754 5757 5760 5762 5763 5764 5765 5767 5768 5770 5772 5773 5775 5777 5778 5780 5781 5782 5785 5787 5789 5791 5793 5796 5798 5801 5802 5804 5806 5808 5809 5811 5813 5815 5816 5817 5818 5818 5819 5820 5821 5822 5823 5824 5826 5827 5828 5830 5831 5833 5834 5835 5837 5838 5839 5840 5841 5843 5843 5844 5846 5847 5848 5848 5849 5851 5852 5853 5853 5854 5856 5856 5857 5858 5858 5859 5859 5860 5861 5862 5862 5863 5863 5864 5865 5865 5866
5720 5722 5723 5724 5726 5728 5729 5731 5732 5734 5737 5739 5742 5744 5746 5748 5751 5754 5756 5759 5762 5763 5764 5765 5767 5768 5770 5771 5773 5774 5776 5777 5779 5781 5783 5785 5787 5788 5790 5792 5794 5796 5798 5800 5803 5804 5806 5808 5810 5812 5813 5814 5815 5816 5817 5818 5818 5820 5821 5822 5823 5824 5826 5827 5829 5830 5832 5833 5834 5835 5837 5838 5839 5840 5842 5843 5843 5845 5846 5847 5848 5848 5850 5851 5852 5853 5853 5854 5855 5856 5857 5857 5858 5858 5859 5860 5861 5861 5862 5863 5863 5864 5864
5717 5718 5720 5721 5723 5724 5726 5728 5730 5731 5733 5736 5739 5741 5743 5745 5748 5750 5753 5756 5758 5760 5762 5764 5765 5766 5768 5769 5771 5772 5774 5775 5777 5779 5781 5782 5784 5786 5788 5789 5791 5792 5794 5797 5799 5801 5802 5804 5806 5808 5810 5811 5812 5813 5814 5815 5816 5817 5818 5819 5821 5822 5823 5825 5826 5828 5829 5830 5832 5833 5834 5836 5837 5838 5839 5841 5842 5843 5843 5844 5846 5847 5848 5849 5850 5851 5852 5853 5853 5854 5855 5856 5856 5857 5858 5858 5859 5859 5860 5861 5861 5862 5863
5713 5715 5717 5718 5719 5721 5723 5726 5727 5728 5730 5733 5736 5738 5740 5742 5744 5747 5749 5752 5755 5757 5760 5762 5763 5764 5766 5767 5768 5770 5772 5773 5775 5777 5778 5779 5781 5783 5786 5788 5789 5791 5793 5795 5795 5796 5798 5800 5803 5805 5807 5808 5809 5810 5811 5812 5813 5814 5816 5817 5818 5820 5821 5823 5824 5825 5827 5828 5829 5831 5832 5833 5835 5836 5837 5838 5840 5841 5842 5843 5844 5845 5846 5847 5848 5849 5850 5851 5852 5853 5853 5854 5855 5855 5856 5857 5857 5858 5858 5859 5860 5860 5861
5708 5711 5713 5715 5717 5718 5720 5722 5724 5726 5728 5730 5733 5735 5738 5739 5742 5744 5746 5749 5751 5754 5756 5759 5761 5763 5764 5765 5767 5768 5770 5772 5773 5775 5776 5777 5778 5778 5779 5782 5786 5790 5792 5793 5793 5792 5794 5796 5799 5801 5803 5805 5806 5807 5808 5809 5810 5812 5813 5814 5816 5817 5818 5820 5822 5823 5824 5826 5827 5828 5830 5831 5833 5834 5835 5837 5838 5839 5840 5841 5842 5843 5844 5845 5846 5847 5848 5849 5850 5851 5851 5852 5853 5853 5854 5855 5855 5856 5857 5857 5858 5858 5859
5704 5707 5710 5712 5714 5715 5718 5719 5721 5723 5725 5727 5730 5732 5734 5736 5738 5741 5743 5745 5748 5750 5753 5755 5758 5760 5762 5763 5765 5766 5768 5770 5771 5773 5773 5774 5775 5775 5775 5777 5780 5783 5787 5789 5788 5787 5789 5791 5794 5797 5799 5801 5803 5804 5805 5807 5808 5809 5810 5812 5813 5815 5816 5818 5819 5821 5822 5823 5825 5826 5828 5829 5831 5832 5833 5835 5836 5837 5838 5839 5840 5841 5842 5843 5844 5845 5846 5847 5848 5849 5850 5850 5851 5852 5852 5853 5853 5854 5855 5855 5856 5857 5857
5701 5703 5706 5709 5711 5713 5714 5716 5718 5720 5722 5724 5727 5729 5731 5733 5735 5738 5740 5742 5744 5747 5749 5751 5754 5757 5759 5761 5762 5764 5766 5767 5768 5769 5770 5771 5772 5772 5773 5774 5776 5778 5782 5785 5784 5783 5783 5787 5790 5793 5795 5797 5799 5801 5802 5804 5805 5807 5808 5809 5811 5812 5814 5816 5817 5818 5820 5821 5823 5824 5826 5827 5829 5830 5831 5833 5834 5835 5836 5837 5838 5839 5840 5842 5843 5843 5844 5845 5846 5847 5848 5848 5849 5850 5850 5851 5852 5853 5853 5853 5854 5855 5855
5697 5700 5703 5705 5708 5709 5711 5713 5715 5717 5719 5722 5724 5726 5728 5730 5733 5734 5737 5739 5741 5744 5746 5748 5750 5753 5755 5758 5759 5761 5763 5764 5766 5767 5768 5768 5769 5770 5771 5773 5775 5777 5780 5783 5783 5780 5779 5783 5785 5788 5791 5793 5795 5797 5799 5801 5803 5804 5805 5807 5808 5810 5812 5813 5815 5816 5818 5819 5821 5822 5823 5825 5827 5828 5829 5831 5832 5833 5834 5835 5836 5837 5838 5840 5841 5842 5842 5843 5844 5845 5846 5847 5847 5848 5848 5849 5850 5850 5851 5852 5852 5853 5853
5694 5697 5699 5702 5704 5706 5708 5710 5712 5714 5716 5719 5721 5723 5726 5728 5730 5732 5733 5736 5738 5740 5743 5745 5747 5749 5752 5754 5756 5758 5759 5761 5763 5763 5764 5765 5766 5768 5769 5771 5773 5775 5777 5779 5779 5778 5777 5779 5782 5785 5787 5789 5792 5794 5796 5798 5800 5801 5803 5804 5806 5808 5809 5811 5813 5814 5815 5817 5818 5820 5822 5823 5824 5826 5827 5828 5830 5831 5832 5833 5834 5835 5837 5838 5839 5840 5841 5841 5842 5843 5843 5844 5845 5846 5847 5847 5848 5849 5849 5849 5850 5851 5851
5692 5695 5697 5699 5702 5704 5706 5707 5709 5711 5714 5716 5718 5721 5723 5725 5727 5729 5731 5733 5735 5738 5740 5742 5743 5746 5748 5751 5753 5754 5756 5757 5759 5761 5763 5763 5763 5765 5767 5768 5770 5772 5772 5774 5775 5776 5776 5777 5779 5781 5783 5786 5788 5791 5793 5795 5797 5798 5800 5802 5803 5805 5807 5808 5810 5812 5813 5815 5816 5818 5819 5821 5822 5823 5825 5826 5828 5828 5830 5831 5832 5833 5834 5835 5837 5838 5838 5839 5841 5841 5841 5842 5843 5844 5844 5845 5846 5848 5847 5848 5848 5848 5849
5689 5693 5694 5695 5698 5701 5703 5705 5706 5708 5710 5713 5716 5718 5720 5723 5725 5726 5728 5730 5733 5735 5737 5738 5740 5743 5745 5747 5749 5751 5753 5754 5756 5758 5760 5760 5761 5762 5763 5766 5767 5768 5768 5769 5773 5776 5776 5775 5775 5777 5780 5783 5786 5788 5790 5792 5794 5796 5797 5799 5801 5803 5804 5806 5808 5810 5811 5813 5814 5816 5817 5818 5820 5821 5823 5824 5825 5826 5828 5829 5830 5831 5832 5833 5834 5835 5836 5837 5838 5839 5840 5840 5841 5842 5842 5843 5844 5845 5845 5845 5846 5846 5847
5685 5689 5690 5691 5693 5696 5698 5702 5704 5705 5707 5710 5713 5715 5717 5720 5722 5724 5725 5727 5729 5732 5734 5736 5738 5740 5742 5744 5746 5748 5749 5751 5753 5755 5757 5758 5759 5760 5761 5766 5768 5767 5766 5766 5770 5775 5775 5773 5773 5774 5777 5780 5783 5785 5787 5789 5791 5793 5795 5797 5798 5800 5802 5804 5806 5807 5809 5810 5812 5813 5815 5816 5818 5819 5820 5822 5823 5824 5825 5826 5828 5829 5830 5831 5832 5833 5834 5834 5835 5837 5838 5838 5839 5839 5840 5841 5841 5842 5843 5843 5843 5844 5845
5681 5684 5686 5687 5689 5692 5694 5697 5700 5703 5705 5707 5709 5711 5713 5716 5719 5721 5723 5724 5727 5729 5731 5733 5735 5737 5739 5741 5743 5744 5746 5748 5750 5753 5756 5757 5757 5758 5761 5765 5767 5766 5765 5764 5768 5773 5774 5772 5771 5773 5775 5778 5780 5782 5784 5786 5788 5790 5792 5794 5796 5798 5800 5802 5803 5805 5806 5808 5809 5811 5812 5814 5815 5817 5818 5819 5821 5822 5823 5824 5825 5826 5827 5828 5829 5830 5831 5833 5833 5834 5835 5836 5837 5837 5838 5838 5839 5839 5840 5841 5842 5843 5843
5676 5679 5682 5684 5686 5688 5691 5693 5695 5699 5702 5703 5705 5708 5710 5713 5716 5718 5721 5722 5724 5726 5728 5730 5732 5734 5737 5738 5740 5742 5743 5745 5746 5749 5753 5752 5753 5755 5758 5761 5763 5762 5761 5762 5766 5769 5770 5769 5769 5771 5773 5775 5777 5779 5781 5783 5785 5787 5789 5792 5794 5796 5798 5799 5801 5802 5804 5805 5807 5808 5810 5811 5813 5814 5816 5817 5818 5819 5821 5822 5823 5824 5825 5826 5827 5828 5829 5830 5831 5832 5833 5833 5834 5835 5836 5836 5837 5837 5838 5838 5840 5841 5841
5673 5676 5678 5681 5683 5685 5687 5689 5692 5695 5698 5701 5703 5705 5707 5710 5712 5715 5718 5720 5722 5723 5725 5727 5729 5732 5734 5736 5737 5739 5740 5741 5743 5745 5748 5749 5751 5752 5753 5756 5758 5758 5758 5761 5764 5767 5768 5767 5768 5770 5772 5773 5775 5777 5778 5780 5783 5785 5787 5790 5792 5793 5795 5797 5798 5799 5801 5803 5804 5805 5807 5808 5810 5811 5813 5814 5816 5817 5818 5819 5820 5821 5822 5823 5824 5826 5827 5828 5828 5829 5830 5831 5832 5833 5833 5834 5834 5835 5835 5836 5837 5838 5838
5669 5672 5675 5678 5680 5682 5684 5686 5688 5691 5694 5697 5700 5702 5704 5706 5709 5712 5714 5717 5719 5721 5722 5724 5726 5728 5731 5733 5735 5736 5737 5738 5739 5742 5744 5746 5748 5750 5751 5752 5754 5756 5757 5759 5761 5763 5765 5766 5767 5768 5770 5771 5773 5774 5776 5778 5780 5783 5785 5787 5789 5791 5793 5794 5795 5796 5798 5800 5801 5803 5804 5805 5807 5808 5810 5812 5813 5814 5815 5816 5818 5818 5820 5821 5822 5823 5824 5825 5826 5827 5828 5828 5829 5830 5831 5831 5832 5833 5833 5833 5834 5835 5835
5666 5668 5671 5674 5677 5679 5681 5683 5686 5688 5691 5693 5696 5699 5701 5703 5706 5708 5711 5713 5716 5718 5719 5721 5723 5725 5728 5730 5732 5733 5733 5734 5736 5738 5741 5743 5745 5747 5749 5750 5751 5752 5753 5755 5757 5759 5762 5763 5764 5766 5767 5768 5770 5771 5773 5776 5778 5780 5783 5785 5787 5788 5790 5791 5792 5793 5795 5797 5798 5799 5801 5802 5804 5806 5807 5809 5810 5811 5813 5813 5815 5816 5817 5818 5819 5820 5821 5822 5823 5824 5825 5826 5827 5827 5828 5829 5829 5830 5830 5831 5832 5832 5833
5662 5665 5668 5671 5673 5676 5678 5681 5683 5685 5687 5690 5693 5695 5698 5701 5703 5705 5708 5710 5713 5715 5716 5718 5720 5722 5724 5726 5728 5730 5731 5732 5733 5734 5737 5739 5742 5744 5747 5748 5750 5751 5752 5753 5755 5757 5759 5761 5762 5763 5764 5766 5767 5769 5771 5773 5775 5778 5780 5782 5784 5786 5787 5788 5789 5790 5792 5794 5795 5797 5798 5800 5801 5803 5804 5806 5807 5808 5810 5811 5812 5813 5814 5815 5816 5817 5818 5819 5820 5821 5822 5823 5824 5824 5825 5826 5827 5827 5828 5828 5828 5829 5830
5659 5662 5664 5667 5670 5673 5675 5677 5679 5681 5684 5687 5689 5692 5695 5698 5699 5702 5704 5707 5709 5711 5713 5715 5717 5719 5721 5723 5725 5727 5728 5729 5730 5731 5733 5736 5738 5741 5744 5746 5748 5750 5751 5751 5752 5754 5757 5760 5760 5761 5762 5763 5764 5766 5768 5770 5773 5775 5777 5779 5781 5783 5784 5785 5786 5787 5789 5791 5792 5793 5795 5797 5798 5800 5802 5803 5805 5806 5807 5808 5809 5810 5811 5812 5813 5814 5816 5817 5818 5818 5819 5820 5821 5822 5823 5823 5824 5824 5825 5826 5826 5826 5827
5655 5658 5661 5663 5666 5669 5671 5673 5675 5678 5681 5683 5686 5688 5691 5694 5696 5698 5701 5703 5706 5708 5710 5712 5714 5716 5718 5720 5722 5724 5725 5726 5726 5728 5730 5732 5735 5738 5741 5743 5745 5746 5748 5749 5750 5753 5756 5757 5757 5758 5758 5760 5762 5763 5765 5768 5770 5772 5774 5776 5778 5779 5781 5782 5783 5784 5785 5787 5788 5790 5792 5794 5796 5797 5799 5800 5802 5803 5804 5805 5806 5808 5808 5809 5811 5812 5813 5814 5815 5815 5816 5817 5818 5819 5820 5820 5821 5822 5822 5823 5823 5824 5824
5652 5654 5657 5659 5662 5664 5667 5669 5672 5674 5677 5680 5683 5685 5687 5690 5692 5695 5697 5700 5703 5705 5707 5709 5711 5713 5715 5717 5719 5721 5723 5724 5724 5725 5727 5729 5732 5734 5737 5739 5741 5742 5743 5745 5748 5751 5752 5753 5753 5754 5755 5757 5759 5760 5762 5765 5767 5769 5771 5773 5775 5776 5778 5778 5779 5780 5782 5783 5785 5787 5789 5791 5793 5794 5796 5798 5799 5800 5801 5802 5803 5805 5806 5807 5808 5809 5810 5811 5812 5813 5813 5814 5815 5816 5817 5817 5818 5819 5819 5820 5820 5821 5821
5649 5651 5653 5655 5658 5660 5663 5665 5668 5670 5674 5678 5680 5682 5683 5686 5689 5692 5694 5696 5699 5701 5703 5706 5708 5710 5712 5714 5716 5718 5719 5720 5722 5723 5724 5726 5728 5731 5733 5736 5738 5740 5742 5743 5745 5747 5748 5749 5750 5751 5753 5755 5756 5757 5759 5761 5763 5765 5768 5770 5771 5773 5774 5775 5776 5777 5778 5780 5782 5783 5785 5787 5789 5791 5793 5794 5795 5797 5798 5799 5800 5802 5803 5804 5805 5806 5807 5808 5808 5809 5810 5811 5812 5813 5814 5814 5815 5816 5816 5817 5818 5818 5818
5645 5648 5649 5652 5654 5657 5659 5662 5664 5667 5671 5674 5677 5678 5680 5683 5685 5688 5690 5693 5695 5698 5700 5704 5706 5707 5708 5711 5713 5714 5715 5716 5717 5719 5722 5724 5726 5727 5730 5733 5735 5737 5738 5740 5741 5743 5744 5746 5748 5749 5751 5751 5752 5754 5756 5758 5760 5762 5765 5767 5768 5769 5771 5772 5773 5774 5775 5776 5778 5780 5782 5783 5785 5787 5789 5791 5792 5793 5795 5796 5797 5798 5800 5801 5802 5803 5804 5804 5805 5806 5807 5808 5809 5810 5810 5811 5812 5813 5813 5814 5814 5815 5816
5641 5643 5646 5648 5651 5654 5658 5659 5662 5664 5668 5670 5672 5674 5676 5678 5681 5683 5686 5689 5692 5694 5697 5701 5703 5704 5706 5708 5709 5710 5712 5713 5714 5716 5718 5720 5722 5724 5728 5731 5732 5733 5734 5736 5738 5739 5741 5743 5745 5746 5748 5748 5749 5752 5753 5755 5757 5759 5761 5763 5765 5766 5767 5768 5770 5771 5772 5773 5774 5776 5778 5780 5782 5783 5785 5787 5788 5790 5791 5793 5794 5795 5797 5798 5799 5800 5801 5801 5802 5803 5804 5805 5806 5807 5807 5808 5809 5809 5810 5811 5811 5812 5813
5638 5640 5642 5645 5647 5650 5653 5656 5659 5661 5663 5665 5667 5669 5671 5674 5677 5680 5683 5686 5688 5691 5695 5698 5699 5700 5703 5704 5705 5707 5708 5709 5711 5713 5714 5716 5718 5720 5724 5728 5729 5730 5731 5732 5734 5736 5738 5740 5742 5743 5744 5745 5747 5749 5750 5752 5754 5756 5758 5759 5761 5763 5764 5765 5767 5768 5769 5770 5771 5773 5774 5776 5778 5780 5782 5783 5785 5786 5788 5789 5790 5792 5793 5794 5796 5797 5798 5798 5799 5800 5801 5802 5803 5803 5804 5805 5806 5806 5807 5808 5808 5809 5809